weather.gov     
National Weather Service

Terminal Aerodrome Forecast
NWS Homepage
This page is being discontinued on March 12, 2014.
The same data is available at this site. Please update your bookmarks.
Thank you, and we apologize for the inconvenience.
Please send an email to SR-SRH.Webmaster@noaa.gov with any concerns.


Current Version
Previous Version:    01  02  03  04  05  06  07  08  09  10  11  12  13  14  15  16  17  18  19  20  21  22  23  
[Printable]
840
FTUS44 KOUN 312329
TAFGAG
TAF
KGAG 312329Z 0100/0124 18013KT 6SM BR OVC008
     FM010800 34013KT P6SM OVC015
     FM011100 34016G22KT P6SM BKN015
     FM011500 35023G31KT P6SM BKN025
     FM011900 34020G30KT P6SM SCT030=


840
FTUS44 KOUN 312329
TAFGAG
TAF
KGAG 312329Z 0100/0124 18013KT 6SM BR OVC008
     FM010800 34013KT P6SM OVC015
     FM011100 34016G22KT P6SM BKN015
     FM011500 35023G31KT P6SM BKN025
     FM011900 34020G30KT P6SM SCT030=




U.S. Dept. of Commerce
NOAA National Weather Service
1325 East West Highway
Silver Spring, MD 20910
E-mail: w-nws.webmaster@noaa.gov
Page last modified: May 16, 2007
NATIONAL WEATHER SERVICE: for Safety, for Work, for Fun - FOR LIFE